Tracking 25734 objects as of 28-May-2022
HD Live streaming from Space Station
objects crossing your sky now

NOAA 17 DEB

Track NOAA 17 DEB now!
10-day predictions


NORAD ID: 49484
Int'l Code: 2002-032DN
Perigee: 796.4 km
Apogee: 830.4 km
Inclination: 98.7 °
Period: 101.0 minutes
Semi major axis: 7184 km
RCS: Unknown
Launch date: June 24, 2002
Source: United States (US)
Launch site: AIR FORCE WESTERN TEST RANGE (AFWTR)

Note: This is SATELLITE DEBRIS
aabbcc
Your satellite tracking list
Your tracking list is empty




NASA's NSSDC Master Catalog

Two Line Element Set (TLE):
1 49484U 02032DN  22148.06615224  .00006920  00000-0  29263-2 0  9990
2 49484  98.7052  95.9384 0023616 338.5223  21.4964 14.25664927 48301
Source of the keplerian elements: AFSPC